Regional Weather Roundup
Issued by NWS Albany, NY

Home | Current Version | Previous Version | Text Only | Print | Product List | Glossary On
Versions: 1 2 3 4 5 6 7 8 9 10 11 12 13 14 15 16 17 18 19 20 21 22 23 24 25 26 27 28 29 30 31 32 33 34 35 36 37 38 39 40 41 42 43 44 45 46 47 48 49
000
ASUS41 KALY 281410
RWRALY

NEW YORK STATE HOURLY WEATHER ROUNDUP
NATIONAL WEATHER SERVICE ALBANY NY
900 AM EST WED JAN 28 2015

NOTE: "FAIR" INDICATES FEW OR NO CLOUDS BELOW 12,000 FEET WITH NO
SIGNIFICANT WEATHER AND/OR NO OBSTRUCTIONS TO VISIBILITY.

NYZ032-033-038>043-046>054-057>066-NYZ062>081-281500-
EAST


CITY           SKY/WX    TMP DP  RH WIND       PRES   REMARKS
ALBANY         PTSUNNY   11  -3  53 N12       30.10R WCI  -3
GLENS FALLS    CLOUDY     9   2  73 E5        30.10R WCI   1
POUGHKEEPSIE   MOSUNNY   20   3  48 N13       30.02R WCI   7
NEWBURGH       MOSUNNY   14   3  62 NW7       30.01R WCI   4
MONTGOMERY     SUNNY     19  -1  41 NW12G23   30.01R WCI   7
WHITE PLAINS   MOSUNNY   18   3  52 NW14G22   29.97R WCI   4
ISLIP          PTSUNNY   19   6  57 N20       29.98R WCI   3
NEW YORK CITY  MOSUNNY   20   3  48 NW15G24   30.03R WCI   6
CENTRAL PARK   MOSUNNY   19  -1  41 NW13G24   30.04R WCI   6
$$

NYZ005>009-017-018-044>046-055-056-281500-
CENTRAL


CITY           SKY/WX    TMP DP  RH WIND       PRES   REMARKS
FULTON         MOSUNNY    7   0  73 CALM      30.21R
SYRACUSE       MOSUNNY    8   0  69 VRB3      30.21R
ROME           MOSUNNY    1  -5  75 NW5       30.21R WCI  -9
ELMIRA         SUNNY      2  -3  80 SW7       30.19R WCI -11
BINGHAMTON     MOSUNNY   10   3  73 NW14G25   30.05R WCI  -6
MONTICELLO     MOSUNNY   10   1  67 NW15G22   30.00R WCI  -6
$$

NYZ026>034-041>043-281500-
NORTH


CITY           SKY/WX    TMP DP  RH WIND       PRES   REMARKS
WATERTOWN        N/A    N/A N/A N/A MISG      30.23R
FORT DRUM      NOT AVBL
MASSENA        MOSUNNY    3  -8  60 W5        30.21R WCI  -6
SARANAC LAKE   MOSUNNY    1  -7  68 VRB5      30.00R WCI  -9
PLATTSBURGH    PTSUNNY    8  -4  58 N6        30.14R WCI  -2
$$

NYZ001>004-010>016-019>021-281500-
WEST


CITY           SKY/WX    TMP DP  RH WIND       PRES   REMARKS
NIAGARA FALLS  MOSUNNY    7   5  91 SW5       30.28R WCI  -2
BUFFALO        MOSUNNY    9   4  80 S7        30.27R WCI  -2
DUNKIRK        MOSUNNY   10   7  87 SW6       30.30R WCI   0
JAMESTOWN      MOSUNNY    5   3  92 W3        30.19R
WELLSVILLE     MOSUNNY    9   2  73 NW8       30.13R WCI  -3
ROCHESTER      MOSUNNY   12   6  77 W7        30.25R WCI   1
PENN YAN       SUNNY     15   6  67 NW8       30.18R WCI   4
$$

             KEY
       WCI = WIND CHILL INDEX
       VSB = VISIBILITY
       HX  = HEAT INDEX
$$


USA.gov is the U.S. government's official web portal to all federal, state and local government web resources and services.